Regional Weather Roundup
Issued by NWS Albany, NY

Home | Current Version | Previous Version | Text Only | Print | Product List | Glossary On
Versions: 1 2 3 4 5 6 7 8 9 10 11 12 13 14 15 16 17 18 19 20 21 22 23 24
000
ASUS41 KALY 291710
RWRALY

NEW YORK STATE HOURLY WEATHER ROUNDUP
NATIONAL WEATHER SERVICE ALBANY NY
100 PM EDT WED OCT 29 2014

NOTE: "FAIR" INDICATES FEW OR NO CLOUDS BELOW 12,000 FEET WITH NO
SIGNIFICANT WEATHER AND/OR NO OBSTRUCTIONS TO VISIBILITY.

NYZ032-033-038>043-046>054-057>066-NYZ062>081-291800-
EAST


CITY           SKY/WX    TMP DP  RH WIND       PRES   REMARKS
ALBANY         LGT RAIN  56  52  86 SE3       29.87S
GLENS FALLS    CLOUDY    58  51  78 VRB3      29.84F
POUGHKEEPSIE   CLOUDY    68  53  58 W13       29.83F
NEWBURGH       PTSUNNY   64  54  68 NW17G29   29.87
MONTGOMERY     CLOUDY    63  49  60 NW16G22   29.86F
WHITE PLAINS   PTSUNNY   69  52  54 W9        29.84F
ISLIP          CLOUDY    68  59  73 SW9       29.82F
NEW YORK CITY  PTSUNNY   71  53  52 W9        29.84F
CENTRAL PARK   PTSUNNY   71  54  54 W6        29.87F
$$

NYZ005>009-017-018-044>046-055-056-291800-
CENTRAL


CITY           SKY/WX    TMP DP  RH WIND       PRES   REMARKS
FULTON         CLOUDY    50  39  66 SW7       29.90F
SYRACUSE       CLOUDY    53  37  54 W10       29.91R
ROME           CLOUDY    53  43  68 W10       29.90S
ELMIRA         CLOUDY    56  42  59 W9        29.91F
BINGHAMTON     CLOUDY    52  39  61 W10       29.89F
MONTICELLO     CLOUDY    52  52 100 W10       29.91F
$$

NYZ026>034-041>043-291800-
NORTH


CITY           SKY/WX    TMP DP  RH WIND       PRES   REMARKS
WATERTOWN      CLOUDY    54  38  54 SW10      29.87F
FORT DRUM      NOT AVBL
MASSENA        PTSUNNY   55  39  54 SW14G26   29.81F
SARANAC LAKE   CLOUDY    49  40  71 SW8       29.81F
PLATTSBURGH    CLOUDY    57  40  52 W10G17    29.81F
$$

NYZ001>004-010>016-019>021-291800-
WEST


CITY           SKY/WX    TMP DP  RH WIND       PRES   REMARKS
NIAGARA FALLS  PTSUNNY   53  37  54 SW15      29.88F
BUFFALO        PTSUNNY   53  39  59 W16G26    29.89F
DUNKIRK        CLOUDY    51  41  68 SW15      29.92F
JAMESTOWN      CLOUDY    50  37  62 W14       29.93F
WELLSVILLE     CLOUDY    49  38  65 W10       29.92F
ROCHESTER      CLOUDY    53  37  54 W10       29.90F
PENN YAN       CLOUDY    54  40  59 NW12      29.91S
$$

             KEY
       WCI = WIND CHILL INDEX
       VSB = VISIBILITY
       HX  = HEAT INDEX
$$



USA.gov is the U.S. government's official web portal to all federal, state and local government web resources and services.